Regional Weather Roundup
Issued by NWS Cleveland, OH

Home | Current Version | Previous Version | Graphics & Text | Print | Product List | Glossary On
Versions: 1 2 3 4 5 6 7 8 9 10 11 12 13 14 15 16 17 18 19 20 21 22 23 24 25 26 27 28 29 30 31 32 33 34 35 36 37 38 39 40 41 42 43 44 45 46 47 48 49 50
074
ASUS41 KCLE 250110
RWRCLE
OHIO REGIONAL WEATHER ROUNDUP
NATIONAL WEATHER SERVICE CLEVELAND, OH
900 PM EDT MON APR 24 2017

NOTE: "FAIR" INDICATES FEW OR NO CLOUDS BELOW 12,000 FEET WITH NO
SIGNIFICANT WEATHER AND/OR OBSTRUCTIONS TO VISIBILITY.

OHZ001>008-015>018-024>027-034-035-043-044-250200-
   NORTHWEST OHIO

CITY           SKY/WX    TMP DP  RH WIND       PRES   REMARKS
DEFIANCE       CLOUDY    57  37  47 NE12      29.87S
FINDLAY        CLOUDY    61  38  42 E9        29.86R
TOLEDO EXPRESS CLOUDY    54  40  59 E13       29.89F
TOLEDO EXEC    CLEAR     52  45  77 NE9       29.90F
LIMA           CLOUDY    63  47  55 E8        29.85R
$$

OHZ009>014-019>023-028>033-038-089-250200-
   NORTHEAST OHIO

CITY           SKY/WX    TMP DP  RH WIND       PRES   REMARKS
CLE-HOPKINS    MOCLDY    66  42  41 SE14G25   29.94R
CLE-LAKEFRONT  MOCLDY    65  43  44 SE16G22   29.92R
CUY CO. ARPT   PTCLDY    64  32  29 SE18      29.95R
LORAIN-ELYRIA  PTCLDY    63  41  44 SE12      29.92R
ASHTABULA      CLEAR     54  45  71 CALM      29.98R
AKRON-CANTON   CLOUDY    58  43  57 E13       29.96R
WOOSTER        CLOUDY    58  44  60 SE12      29.94R
MANSFIELD      CLOUDY    59  46  62 E18G25    29.91S
YOUNGSTOWN     CLOUDY    59  41  51 SE8       29.97S
$$

OHZ042-051>053-060>062-070>072-077>081-250200-
  SOUTHWEST OHIO

CITY           SKY/WX    TMP DP  RH WIND       PRES   REMARKS
CINC-COVINGTON MOCLDY    63  51  65 E10       29.81S
CINC-LUNKEN    CLOUDY    65  54  67 E8        29.82S
HAMILTON       PTCLDY    63  53  70 E9        29.82F
DAYTON         CLOUDY    62  50  64 E17       29.84S
WRIGHT-PAT AFB CLOUDY    63  51  66 E8        29.85S
DAYTON GENERAL CLOUDY    62  51  67 E8        29.83S
WILMINGTON     CLOUDY    60  53  77 E12       29.85R
$$

OHZ036-037-039>041-045>050-054>059-063>069-073>076-082>088-250200-
  CENTRAL AND SOUTHEAST OHIO

CITY           SKY/WX    TMP DP  RH WIND       PRES   REMARKS
COLUMBUS       CLOUDY    59  48  67 E15G21    29.90R
OSU AIRPORT    CLOUDY    60  49  66 E13       29.89R
BOLTON FIELD   CLOUDY    60  48  65 E10       29.89R
RICKENBACK AFB CLOUDY    58  48  68 E9G17     29.88R
NEWARK         CLOUDY    58  46  64 E13       29.91R
MARION         CLOUDY    61  47  59 SE12      29.89R
LANCASTER      CLOUDY    59  48  67 E9        29.89R
ZANESVILLE     CLOUDY    56  46  69 E10       29.92R
NEW PHILLY     NOT AVBL
$$




USA.gov is the U.S. government's official web portal to all federal, state and local government web resources and services.